[[{"header":{"parameterUnit":"m.s-1","parameterCategory":1,"la1":30.2992,"la2":30.254,"lo1":-89.0895,"lo2":-89.0443,"dy":0.0025,"dx":0.0025,"nx":19,"ny":19,"refTime":"2026-05-06T03:00:00:Z","depth":0,"parameterNumber":2,"parameterNumberName":"U-component_of_WINDS"},"data":[0,0,0,3.7209,3.7212,3.7344,3.7344,3.7516,3.7518,0,0,0,0,0,0,0,0,0,0,0,3.7174,3.7175,3.7209,3.7212,3.7344,3.7344,3.7516,3.7518,0,0,0,0,0,0,0,0,0,0,0,3.7173,3.7175,3.7176,3.7213,3.7344,3.7344,3.7516,3.7415,0,0,0,0,0,0,0,0,0,0,3.7287,3.7257,3.7174,3.7176,3.7214,3.7343,3.7344,3.741,3.7421,3.7459,0,3.7494,0,3.7509,3.753,3.753,0,0,0,3.721,3.7248,3.728,3.7177,3.7215,3.7343,3.7284,3.7416,3.7429,3.7474,3.7496,3.7502,3.7511,3.7531,3.7532,3.7757,3.7759,0,0,3.7203,3.7199,3.7272,3.7289,3.727,3.728,3.7288,3.7424,3.7448,3.7497,3.7506,3.7514,3.7532,3.7533,3.7756,3.7758,0,0,0,3.7184,3.7194,3.7223,3.7282,3.7305,3.7283,3.7293,3.7442,3.7452,3.7508,3.7516,3.7533,3.7535,3.7755,3.7757,3.7811,0,0,0,3.7179,3.7183,3.722,3.7219,3.7303,3.7375,3.7308,3.7442,3.7458,3.7515,3.7533,3.7537,3.7754,3.7756,3.7806,3.7836,0,0,0,3.7164,3.7181,3.7201,3.7219,3.7275,3.7373,3.7391,3.7446,3.7463,3.7531,3.7537,3.7753,3.7756,3.7803,3.783,3.7894,0,0,0,3.7147,3.7248,3.7202,3.7319,3.7274,3.7406,3.739,3.7488,3.7553,3.7534,3.7754,3.7757,3.7801,3.7826,3.7889,3.7945,3.7969,0,0,3.7273,3.7263,3.7332,3.7295,3.7434,3.7386,3.7533,3.7596,3.7605,3.7706,3.7711,3.7808,3.783,3.7893,3.8103,3.8121,0,0,0,3.7371,3.742,3.7457,3.7519,3.7569,3.7613,3.7654,3.7677,3.7762,3.7657,3.7849,3.7862,3.7899,3.7925,3.7941,3.7972,3.7769,3.7769,3.7769,3.7544,3.755,3.7663,3.7685,3.7745,3.7785,3.7833,3.787,3.7861,3.7905,3.7935,3.8062,3.8093,3.8105,3.8137,3.7966,3.7966,3.7967,3.7967,3.7728,3.7797,3.778,3.7884,3.789,3.7977,3.8019,3.8008,3.8089,3.804,3.8073,3.8018,3.8125,3.8153,3.7971,3.797,3.797,3.7969,3.7969,3.7841,3.7875,3.7901,3.7989,3.8056,3.8074,3.8152,3.8155,3.8158,3.8191,3.8221,3.822,3.8219,3.8205,3.8206,3.8206,3.8207,3.8207,3.8207,3.7947,3.7974,3.804,3.8101,3.8139,3.8191,3.8231,3.8269,3.8311,3.8307,3.8307,3.8291,3.8135,3.8094,3.8214,3.8213,3.8212,3.8211,3.8211,3.8129,3.8088,3.8189,3.8228,3.8298,3.8363,3.8366,3.8442,3.8474,3.8512,3.8489,3.8374,3.8364,3.8352,3.8318,3.8489,3.8489,3.8489,3.8489,3.8223,3.8219,3.8322,3.8383,3.8444,3.8456,3.8568,3.86,3.8626,3.8646,3.8621,3.8578,3.8565,3.8563,3.8546,3.8515,3.8731,3.8732,3.8732,3.8334,3.8336,3.8432,3.8457,3.8511,3.8558,3.8663,3.8733,3.8755,3.8742,3.866,3.865,3.858,3.8557,3.8541,3.8515,3.8458,0,0]},{"header":{"parameterUnit":"m.s-1","parameterCategory":1,"la1":30.2992,"la2":30.254,"lo1":-89.0895,"lo2":-89.0443,"dy":0.0025,"dx":0.0025,"nx":19,"ny":19,"refTime":"2026-05-06T03:00:00:Z","depth":0,"parameterNumber":3,"parameterNumberName":"V-component_of_WINDS"},"data":[0,0,0,5.5493,5.5497,5.5658,5.5659,5.5868,5.587,0,0,0,0,0,0,0,0,0,0,0,5.5451,5.5453,5.5493,5.5497,5.5658,5.5659,5.5868,5.587,0,0,0,0,0,0,0,0,0,0,0,5.545,5.5452,5.5454,5.5498,5.5658,5.5659,5.5867,5.5744,0,0,0,0,0,0,0,0,0,0,5.5586,5.5553,5.5452,5.5454,5.5499,5.5658,5.5659,5.5738,5.5751,5.5797,0,5.5843,0,5.586,5.5884,5.5885,0,0,0,5.5492,5.5542,5.5581,5.5454,5.5501,5.5658,5.5584,5.5745,5.5761,5.5816,5.5846,5.5853,5.5864,5.5886,5.5887,5.6178,5.618,0,0,5.5483,5.5482,5.557,5.5591,5.557,5.5579,5.5589,5.5755,5.5786,5.5846,5.5858,5.5867,5.5887,5.5889,5.6177,5.6179,0,0,0,5.5461,5.5476,5.5511,5.5583,5.5612,5.5584,5.5596,5.5778,5.579,5.586,5.5869,5.5889,5.5891,5.6175,5.6177,5.6257,0,0,0,5.5456,5.5463,5.5507,5.5508,5.5609,5.5698,5.5616,5.5779,5.5797,5.5868,5.5889,5.5893,5.6173,5.6176,5.6251,5.6295,0,0,0,5.5438,5.5461,5.5486,5.5507,5.5577,5.5695,5.5716,5.5783,5.5803,5.5885,5.5894,5.6172,5.6176,5.6246,5.6286,5.6373,0,0,0,5.5418,5.5552,5.5487,5.564,5.5576,5.5744,5.5715,5.584,5.592,5.589,5.6173,5.6177,5.6244,5.6281,5.6368,5.6447,5.648,0,0,5.5586,5.5572,5.5662,5.5609,5.579,5.572,5.5911,5.5983,5.599,5.6114,5.6121,5.6253,5.6286,5.6372,5.6662,5.6688,0,0,0,5.5714,5.5779,5.5827,5.5905,5.5966,5.6022,5.6066,5.6093,5.6199,5.6055,5.6307,5.6326,5.6377,5.6415,5.6438,5.6482,5.6194,5.6194,5.6194,5.5948,5.5954,5.6103,5.6128,5.6203,5.6249,5.631,5.6354,5.6333,5.6393,5.6431,5.6606,5.6651,5.6668,5.6714,5.6471,5.6472,5.6472,5.6472,5.6195,5.6288,5.6262,5.6398,5.6401,5.6513,5.6562,5.6544,5.6648,5.6578,5.6623,5.6547,5.6697,5.6737,5.6478,5.6477,5.6477,5.6476,5.6476,5.635,5.6396,5.6429,5.6544,5.6631,5.6649,5.6752,5.675,5.6748,5.6793,5.6833,5.6832,5.6831,5.6812,5.6813,5.6813,5.6814,5.6814,5.6814,5.6499,5.6533,5.6622,5.67,5.6751,5.6817,5.6864,5.6913,5.6966,5.6956,5.6957,5.6932,5.671,5.6656,5.6824,5.6822,5.6821,5.682,5.682,5.6749,5.6693,5.683,5.6882,5.6973,5.7061,5.7057,5.7157,5.7197,5.7247,5.7213,5.7049,5.7034,5.7016,5.6971,5.7211,5.7211,5.7211,5.7211,5.6882,5.6875,5.7016,5.7098,5.7178,5.719,5.7343,5.7381,5.741,5.7435,5.7399,5.7339,5.732,5.7316,5.7292,5.725,5.7555,5.7555,5.7556,5.7037,5.7038,5.717,5.7202,5.7274,5.7335,5.7479,5.7572,5.7593,5.757,5.7454,5.744,5.7342,5.7309,5.7285,5.7247,5.717,0,0]}]]